Weather History for Billings, MT

Change the Weather History Date:

Tuesday, January 1, 2013

  Actual Average Record
Temperature  
Mean Temperature 25 °F 26 °F  
Max Temperature 32 °F 35 °F 60 °F (1998)
Min Temperature 18 °F 17 °F -25 °F (1942)
Degree Days  
Heating Degree Days 40 39  
Month to date heating degree days 40 39  
Since 1 July heating degree days 2581 2860  
Cooling Degree Days 0 0  
Month to date cooling degree days 0 0  
Year to date cooling degree days 0 0  
Moisture  
Dew Point 15 °F    
Average Humidity 64    
Maximum Humidity 74    
Minimum Humidity 53    
Precipitation  
Precipitation 0.01 in 0.02 in 0.52 in (1943)
Month to date precipitation 0.01 0.02  
Year to date precipitation 0.01 0.02  
Snow  
Snow 0.10 in 0.30 in 5.00 in (1943)
Month to date snowfall 0.1 0.3  
Since 1 July snowfall 16.4 20.2  
Snow Depth 1.00 in    
Sea Level Pressure  
Sea Level Pressure 30.22 in    
Wind  
Wind Speed 19 mph (West)    
Max Wind Speed 26 mph    
Max Gust Speed 32 mph    
Visibility 9 miles    
Events Snow    
T = Trace of Precipitation, MM = Missing Value Source: NWS Daily Summary

Daily Weather History Graph

Daily Weather History Graph

Search for Another Location

Airport:

Trip Planner

Search our weather history database for the weather conditions in past years. The results will help you decide how hot, cold, wet, or windy it might be!

Date:

Astronomy

Jan. 01, 2013 Rise Set
Actual Time 7:55 AM MST 4:40 PM MST
Civil Twilight 7:21 AM MST 5:14 PM MST
Nautical Twilight 6:43 AM MST 5:52 PM MST
Astronomical Twilight 6:07 AM MST 6:28 PM MST
Moon 9:30 PM MST (1/1) 9:55 AM MST (1/1)
Length of Visible Light 9h 53m
Length of Day
8h 45m
Waning Gibbous, 83% of the Moon is Illuminated
Jan 1
Waning Gibbous
Jan 4
Last Quarter
Jan 11
New
Jan 18
First Quarter
Jan 26
Full

Hourly Weather History & Observations

Time (MST) Temp. Windchill Dew Point Humidity Pressure Visibility Wind Dir Wind Speed Gust Speed Precip Events Conditions
12:53 AM 21.0 °F 8.1 °F 12.0 °F 68% 30.20 in 10.0 mi SW 13.8 mph - N/A   Overcast
1:53 AM 19.9 °F 5.7 °F 10.9 °F 68% 30.21 in 10.0 mi WSW 16.1 mph - N/A   Mostly Cloudy
2:53 AM 19.0 °F 3.2 °F 10.9 °F 71% 30.22 in 10.0 mi SW 19.6 mph - N/A   Partly Cloudy
3:53 AM 18.0 °F 2.2 °F 10.0 °F 71% 30.22 in 10.0 mi WSW 18.4 mph - N/A   Clear
4:53 AM 18.0 °F 0.9 °F 10.0 °F 71% 30.22 in 10.0 mi WSW 21.9 mph - N/A   Clear
5:53 AM 18.0 °F 1.3 °F 10.9 °F 74% 30.22 in 10.0 mi SW 20.7 mph - N/A   Clear
6:53 AM 19.0 °F 2.0 °F 10.9 °F 71% 30.20 in 10.0 mi WSW 23.0 mph - N/A   Clear
7:53 AM 19.0 °F 1.6 °F 12.0 °F 74% 30.20 in 10.0 mi WSW 24.2 mph - N/A   Partly Cloudy
8:53 AM 19.9 °F 2.2 °F 12.0 °F 71% 30.19 in 10.0 mi WSW 26.5 mph - N/A   Scattered Clouds
9:53 AM 21.9 °F 6.2 °F 14.0 °F 72% 30.20 in 10.0 mi SW 21.9 mph 28.8 mph N/A   Overcast
10:53 AM 23.0 °F 6.3 °F 14.0 °F 68% 30.19 in 10.0 mi WSW 26.5 mph 33.4 mph N/A   Mostly Cloudy
11:53 AM 25.0 °F 8.9 °F 15.1 °F 66% 30.17 in 10.0 mi WSW 26.5 mph 34.5 mph N/A   Mostly Cloudy
12:32 PM 26.6 °F 13.4 °F 17.6 °F 69% 30.08 in 2.5 mi WSW 18.4 mph 27.6 mph 0.00 in Snow Light Snow
12:37 PM 26.6 °F 13.1 °F 17.6 °F 69% 30.07 in 2.0 mi WSW 19.6 mph - 0.00 in Snow Light Snow
12:42 PM 26.6 °F 13.1 °F 19.4 °F 74% 30.07 in 4.0 mi WSW 19.6 mph - 0.00 in Snow Light Snow
12:47 PM 26.6 °F 13.8 °F 19.4 °F 74% 30.08 in 9.0 mi WSW 17.3 mph - 0.00 in Snow Light Snow
12:53 PM 27.0 °F 15.2 °F 19.0 °F 72% 30.21 in 9.0 mi WSW 15.0 mph - 0.00 in Snow Light Snow
1:18 PM 32.0 °F 18.9 °F 21.2 °F 64% 30.09 in 8.0 mi NW 24.2 mph 29.9 mph 0.00 in Snow Light Snow
1:36 PM 30.2 °F 18.5 °F 23.0 °F 75% 30.10 in 2.0 mi WNW 17.3 mph - 0.00 in Snow Light Snow
1:41 PM 30.2 °F 18.5 °F 23.0 °F 75% 30.10 in 4.0 mi NW 17.3 mph 25.3 mph 0.00 in Snow Light Snow
1:53 PM 30.9 °F 19.8 °F 21.9 °F 69% 30.22 in 10.0 mi NW 16.1 mph - 0.01 in   Mostly Cloudy
2:53 PM 32.0 °F 18.9 °F 21.9 °F 66% 30.22 in 10.0 mi NW 24.2 mph - N/A   Mostly Cloudy
3:53 PM 32.0 °F 23.6 °F 21.9 °F 66% 30.26 in 10.0 mi WNW 10.4 mph - N/A   Scattered Clouds
4:53 PM 30.0 °F 19.5 °F 19.0 °F 64% 30.30 in 10.0 mi NNW 13.8 mph - N/A   Scattered Clouds
5:53 PM 30.0 °F 16.3 °F 17.1 °F 59% 30.31 in 10.0 mi NW 24.2 mph 29.9 mph N/A   Mostly Cloudy
6:53 PM 28.9 °F 16.5 °F 17.1 °F 61% 30.33 in 10.0 mi WNW 18.4 mph - N/A   Overcast
7:53 PM 30.0 °F 18.7 °F 16.0 °F 56% 30.33 in 10.0 mi WNW 16.1 mph 26.5 mph N/A   Overcast
8:53 PM 28.9 °F 16.9 °F 16.0 °F 58% 30.33 in 10.0 mi West 17.3 mph - N/A   Overcast
9:53 PM 28.0 °F 15.3 °F 14.0 °F 56% 30.33 in 10.0 mi WNW 18.4 mph - N/A   Mostly Cloudy
10:53 PM 26.1 °F 14.0 °F 12.9 °F 58% 30.34 in 10.0 mi West 15.0 mph - N/A   Partly Cloudy
11:53 PM 28.0 °F 16.1 °F 12.9 °F 53% 30.32 in 10.0 mi West 16.1 mph - N/A   Mostly Cloudy